Date,TemperatureHighF,TemperatureAvgF,TemperatureLowF,DewpointHighF,DewpointAvgF,DewpointLowF,HumidityHigh,HumidityAvg,HumidityLow,PressureMaxIn,PressureMinIn,WindSpeedMaxMPH,WindSpeedAvgMPH,GustSpeedMaxMPH,PrecipitationSumIn
2013-6-1,92,78,66,71,67,62,88,70,47,29.92,29.79,7,3,0,0.00
2013-6-2,88,75,67,70,67,64,94,76,49,29.81,29.65,10,3,0,0.00
2013-6-3,80,68,61,69,64,53,99,87,66,29.76,29.67,4,1,0,0.63
2013-6-4,75,62,50,50,45,40,73,54,37,30.00,29.73,8,3,0,0.00
2013-6-5,76,63,50,54,48,45,88,60,35,30.11,30.00,5,1,0,0.00
2013-6-6,76,63,52,57,51,47,93,68,43,30.11,30.02,6,1,0,0.00
2013-6-7,59,56,53,59,55,52,99,98,93,30.02,29.71,4,1,0,3.61
2013-6-8,79,62,52,65,57,52,99,87,61,29.93,29.52,6,2,0,1.18
2013-6-9,82,68,54,61,56,54,99,70,45,30.09,29.92,6,2,0,0.00
2013-6-10,76,63,57,63,58,54,99,85,57,30.12,29.91,5,1,0,1.07
2013-6-11,68,59,56,63,58,56,99,95,82,29.90,29.47,3,1,0,1.88
2013-6-12,72,63,56,58,55,52,99,77,53,29.74,29.47,9,3,0,0.00
2013-6-13,63,56,50,59,53,50,99,93,76,29.74,29.56,4,0,0,1.26
2013-6-14,79,60,50,58,54,50,99,81,47,29.69,29.52,5,1,0,1.54
2013-6-15,82,68,56,54,49,44,86,55,28,29.86,29.70,7,2,0,0.00
2013-6-16,75,66,54,64,55,45,89,69,50,29.87,29.63,6,1,0,0.00
2013-6-17,87,70,59,66,61,58,99,77,43,29.81,29.68,8,2,0,0.89
2013-6-18,83,65,58,67,61,58,99,90,58,29.86,29.76,5,1,0,1.69
2013-6-19,83,66,54,59,55,49,99,72,36,30.05,29.81,3,1,0,0.11
2013-6-20,82,67,51,57,53,48,96,64,35,30.18,30.05,5,1,0,0.00
2013-6-21,85,70,57,67,60,54,89,73,49,30.18,30.11,6,2,0,0.00
2013-6-22,84,72,62,66,60,55,79,67,45,30.15,30.03,8,2,0,0.00
2013-6-23,89,75,62,73,66,56,87,73,56,30.10,29.92,6,2,0,0.00
2013-6-24,95,79,68,75,70,64,96,77,49,29.95,29.80,6,2,0,0.06
2013-6-25,92,77,67,74,69,65,96,78,50,29.86,29.66,5,2,0,0.01
2013-6-26,87,76,68,72,69,66,96,82,59,29.75,29.64,6,1,0,0.00
2013-6-27,72,67,64,68,65,62,98,94,84,29.76,29.65,4,1,0,0.17
2013-6-28,82,71,62,75,68,62,99,90,69,29.66,29.39,8,2,0,0.38
2013-6-29,84,74,69,72,69,67,98,85,62,29.63,29.41,6,2,0,0.00
2013-6-30,86,76,69,76,71,67,94,85,68,29.84,29.63,6,1,0,0.00